Zurück zum Katalog

STARLINK-36554

AktivKommunikationVLEO
NORAD 67502·PAYLOAD·🇺🇸 United States

Gestartet Jan 18, 2026 von Cape Canaveral Space Force Station

Loading…

Nächste Überflüge (nächste 24 Stunden)

TLE

AktuellSource: CelesTrak SupGP

Epoche: Sep 14, 2026, 21:46 UTC

1 67502C 26012K   26257.90743056 -.00027245  00000+0 -98676-3 0  2574
2 67502  43.0036 325.7033 0001643 269.3839  11.3484 15.27593867    10

Verfolge STARLINK-36554 in Echtzeit mit AllMySat

Download on the App Store